Date,TemperatureHighF,TemperatureAvgF,TemperatureLowF,DewpointHighF,DewpointAvgF,DewpointLowF,HumidityHigh,HumidityAvg,HumidityLow,PressureMaxIn,PressureMinIn,WindSpeedMaxMPH,WindSpeedAvgMPH,GustSpeedMaxMPH,PrecipitationSumIn
2013-3-1,57.7,43.0,33.6,46.6,39.6,33.4,100,89,58,30.54,30.41,6,1,6,0.00
2013-3-2,62.2,46.2,33.8,51.7,43.1,33.8,100,90,66,30.42,30.22,10,3,10,0.00
2013-3-3,51.1,46.0,43.0,48.7,44.1,41.2,100,93,77,30.24,30.07,8,1,8,0.00
2013-3-4,51.3,43.1,34.0,42.5,39.7,33.8,100,89,67,30.07,29.72,6,1,8,0.00
2013-3-5,56.1,40.8,30.9,44.2,37.5,30.9,100,90,59,29.73,29.61,8,1,8,0.00
2013-3-6,43.3,40.6,38.1,43.2,40.6,37.9,100,100,98,29.71,29.64,13,4,13,0.02
2013-3-7,44.8,42.2,40.5,44.1,42.2,40.5,100,100,100,29.64,29.54,19,7,19,0.08
2013-3-8,41.7,40.5,39.2,41.7,40.5,39.2,100,100,100,29.70,29.55,19,9,19,0.02
2013-3-9,39.6,38.3,36.5,39.6,37.4,32.0,100,96,83,29.90,29.70,17,7,17,0.11
2013-3-10,42.4,34.1,26.6,40.5,32.2,26.6,100,93,77,30.11,29.90,19,5,19,0.04
2013-3-11,39.6,30.5,25.3,29.9,25.2,21.9,100,82,58,30.14,30.10,14,4,14,0.02
2013-3-12,50.2,36.2,23.9,35.6,29.4,21.2,94,77,54,30.13,29.89,9,3,9,0.00
2013-3-13,50.9,38.6,28.6,34.2,30.0,22.5,99,73,45,29.97,29.86,14,3,14,0.00
2013-3-14,46.6,37.8,27.9,44.8,36.8,26.0,100,96,90,29.97,29.55,10,3,11,0.06
2013-3-15,52.2,42.2,34.7,49.1,41.5,34.7,100,97,74,29.55,29.33,12,4,12,0.11
2013-3-16,39.0,35.2,30.7,39.0,35.2,30.7,100,100,100,29.36,29.16,8,2,8,0.26
2013-3-17,43.9,38.1,32.0,43.9,38.1,32.0,100,100,98,29.24,29.10,11,3,11,0.30
2013-3-18,40.8,37.6,32.4,40.8,37.6,32.4,100,100,100,29.52,29.23,21,7,21,0.07
2013-3-19,36.5,34.7,32.7,36.3,34.7,32.7,100,100,100,29.65,29.52,17,6,17,0.28
2013-3-20,42.1,36.8,31.8,40.0,35.8,31.8,100,96,80,30.04,29.65,12,5,12,0.01
2013-3-21,42.6,35.3,29.7,37.2,32.6,29.7,100,90,67,30.08,29.99,22,6,22,0.00
2013-3-22,37.2,35.5,33.1,36.4,34.2,32.6,100,95,85,30.02,29.93,24,11,24,0.04
2013-3-23,35.4,34.8,33.8,35.1,31.7,25.9,100,89,73,30.18,30.01,25,11,25,0.05
2013-3-24,38.1,35.7,34.2,32.5,29.7,27.1,87,78,66,30.29,30.17,23,10,23,0.00
2013-3-25,38.7,35.7,33.8,33.5,31.4,29.3,94,85,74,30.30,30.24,20,7,20,0.00
2013-3-26,41.9,34.9,30.4,39.0,32.7,29.0,100,92,72,30.25,30.15,17,4,17,0.02
2013-3-27,44.4,34.5,29.5,39.4,33.2,29.5,100,95,66,30.15,30.08,14,3,14,0.05
2013-3-28,46.8,37.0,32.0,42.4,32.4,28.0,100,85,56,30.10,30.03,12,3,12,0.08
2013-3-29,48.6,36.9,30.4,40.7,32.9,28.4,100,87,56,30.03,29.91,12,2,12,0.00
2013-3-30,50.0,36.3,27.0,36.6,31.2,27.0,100,83,50,30.01,29.94,7,2,7,0.00
2013-3-31,45.9,35.6,24.4,39.1,29.2,24.5,100,80,51,30.01,29.97,10,2,10,0.00